KC5EZZ-2 Weather Reports


time (UTC)temp
F
wind
direction
speed
knots
gust
knots
rain 1hr
in
rain 24hr
in
rain mn
in
humidity
%
barometer
mb
20260508103104 59 129 0.0 0.0 0.00 0.00 0.00
20260508102605 59 129 0.0 0.0 0.00 0.00 0.00
20260508102103 59 129 0.0 0.0 0.00 0.00 0.00
20260508101603 59 129 0.0 0.0 0.00 0.00 0.00
20260508101104 59 129 0.0 0.0 0.00 0.00 0.00
20260508100601 59 129 0.0 0.0 0.00 0.00 0.00
20260508095602 59 129 0.0 0.0 0.00 0.00 0.00
20260508094600 59 129 0.0 0.0 0.00 0.00 0.00
20260508094101 59 129 0.0 0.0 0.00 0.00 0.00
20260508093559 59 138 1.7 0.9 0.00 0.00 0.00
20260508093059 59 121 0.9 0.0 0.00 0.00 0.00
20260508092600 59 139 2.6 3.5 0.00 0.00 0.00
20260508092057 59 139 2.6 2.6 0.00 0.00 0.00
20260508091558 59 162 2.6 2.6 0.00 0.00 0.00
20260508091057 58 127 3.5 3.5 0.00 0.00 0.00
20260508090555 58 145 3.5 3.5 0.00 0.00 0.00
20260508090055 59 146 3.5 3.5 0.00 0.00 0.00
20260508085556 58 158 3.5 2.6 0.00 0.00 0.00
20260508085053 58 145 6.1 5.2 0.00 0.00 0.00
20260508084554 58 142 4.3 5.2 0.00 0.00 0.00
20260508084055 58 142 4.3 4.3 0.00 0.00 0.00
20260508083552 58 149 6.1 6.1 0.00 0.00 0.00
20260508083053 58 172 5.2 5.2 0.00 0.00 0.00
20260508082553 58 138 3.5 1.7 0.00 0.00 0.00
20260508081552 58 143 7.0 5.2 0.00 0.00 0.00
20260508080550 58 128 6.1 6.1 0.00 0.00 0.00
20260508080050 58 127 7.8 7.0 0.00 0.00 0.00
20260508075551 58 127 6.1 7.0 0.00 0.00 0.00
20260508075049 58 139 4.3 5.2 0.00 0.00 0.00
20260508074549 58 131 4.3 4.3 0.00 0.00 0.00
20260508074050 58 155 4.3 4.3 0.00 0.00 0.00
20260508073547 58 155 5.2 3.5 0.00 0.00 0.00
20260508073048 58 103 6.1 4.3 0.00 0.00 0.00
20260508072548 58 124 3.5 5.2 0.00 0.00 0.00
20260508072046 58 131 6.1 4.3 0.00 0.00 0.00
20260508071546 58 150 5.2 4.3 0.00 0.00 0.00
20260508071047 58 90 5.2 5.2 0.00 0.00 0.00
20260508070544 58 83 4.3 5.2 0.00 0.00 0.00
20260508070045 58 125 3.5 4.3 0.00 0.00 0.00
20260508065545 59 97 4.3 2.6 0.00 0.00 0.00
20260508065042 58 82 4.3 4.3 0.00 0.00 0.00
20260508064542 59 68 5.2 6.1 0.00 0.00 0.00
20260508064043 59 91 4.3 5.2 0.00 0.00 0.00
20260508063540 59 72 3.5 3.5 0.00 0.00 0.00
20260508063041 59 84 5.2 3.5 0.00 0.00 0.00
20260508062542 59 38 2.6 3.5 0.00 0.00 0.00
20260508062039 59 352 3.5 2.6 0.00 0.00 0.00
20260508061540 58 335 3.5 3.5 0.00 0.00 0.00
20260508061040 59 309 2.6 2.6 0.00 0.00 0.00
20260508060538 59 311 2.6 1.7 0.00 0.00 0.00
20260508060038 58 326 3.5 2.6 0.00 0.00 0.00
20260508055539 58 322 4.3 4.3 0.00 0.00 0.00
20260508055039 59 63 0.0 0.0 0.00 0.00 0.00
20260508054538 59 63 0.0 0.0 0.00 0.00 0.00
20260508054038 59 63 0.0 0.0 0.00 0.00 0.00
20260508053537 58 63 0.0 0.0 0.00 0.00 0.00
20260508053035 53 63 0.0 0.0 0.00 0.00 0.00
20260508052536 58 63 0.0 0.0 0.00 0.00 0.00
20260508052033 58 63 0.0 0.0 0.00 0.00 0.00
20260508051534 58 66 2.6 1.7 0.00 0.00 0.00
20260508051034 59 76 2.6 2.6 0.00 0.00 0.00
20260508050532 58 80 3.5 4.3 0.00 0.00 0.00
20260508050032 58 94 3.5 3.5 0.00 0.00 0.00
20260508045533 58 89 3.5 1.7 0.00 0.00 0.00
20260508045030 58 94 2.6 4.3 0.00 0.00 0.00
20260508044531 58 98 3.5 4.3 0.00 0.00 0.00
20260508044031 59 105 3.5 3.5 0.00 0.00 0.00
20260508043611 59 114 4.3 3.5 0.00 0.00 0.00
20260508043529 59 114 4.3 3.5 0.00 0.00 0.00
20260508043029 57 107 0.0 0.0 0.00 0.00 0.00
20260508042530 54 107 0.0 0.0 0.00 0.00 0.00
20260508042059 54 107 0.0 0.0 0.00 0.00 0.00
20260508042027 54 107 0.0 0.0 0.00 0.00 0.00
20260508041651 54 107 0.0 0.0 0.00 0.00 0.00
20260508041528 54 107 0.0 0.0 0.00 0.00 0.00
20260508041028 56 107 0.0 0.0 0.00 0.00 0.00
20260508040526 54 107 0.0 0.0 0.00 0.00 0.00
20260508040026 58 107 0.0 0.0 0.00 0.00 0.00
20260508035527 58 107 0.0 0.0 0.00 0.00 0.00
20260508035024 58 107 0.0 0.0 0.00 0.00 0.00
20260508034525 58 93 0.0 2.6 0.00 0.00 0.00
20260508034025 58 49 0.0 0.0 0.00 0.00 0.00
20260508033523 58 49 0.0 0.0 0.00 0.00 0.00
20260508033023 58 49 0.0 0.0 0.00 0.00 0.00
20260508032524 58 121 2.6 2.6 0.00 0.00 0.00
20260508032021 57 87 4.3 3.5 0.00 0.00 0.00
20260508031522 58 104 3.5 3.5 0.00 0.00 0.00
20260508031022 58 91 5.2 3.5 0.00 0.00 0.00
20260508030520 57 83 5.2 6.1 0.00 0.00 0.00
20260508030021 57 90 5.2 4.3 0.00 0.00 0.00
20260508025521 58 93 4.3 4.3 0.00 0.00 0.00
20260508025019 57 75 3.5 3.5 0.00 0.00 0.00
20260508024519 58 103 4.3 4.3 0.00 0.00 0.00
20260508024019 58 107 3.5 3.5 0.00 0.00 0.00
20260508023516 57 120 2.6 2.6 0.00 0.00 0.00
20260508022517 53 79 4.3 2.6 0.00 0.00 0.00
20260508022014 52 76 3.5 4.3 0.00 0.00 0.00
20260508021515 53 104 4.3 4.3 0.00 0.00 0.00
20260508021015 52 101 3.5 5.2 0.00 0.00 0.00
20260508020513 53 125 4.3 3.5 0.00 0.00 0.00
20260508020013 52 103 3.5 3.5 0.00 0.00 0.00
20260508015514 57 94 5.2 4.3 0.00 0.00 0.00
20260508015010 52 136 4.3 4.3 0.00 0.00 0.00
20260508014511 54 136 4.3 2.6 0.00 0.00 0.00
20260508014012 54 93 3.5 4.3 0.00 0.00 0.00
20260508013509 53 94 4.3 5.2 0.00 0.00 0.00
20260508013010 54 114 5.2 5.2 0.00 0.00 0.00
20260508012510 53 104 6.1 6.1 0.00 0.00 0.00
20260508012008 54 117 4.3 3.5 0.00 0.00 0.00
20260508011508 54 101 4.3 6.1 0.00 0.00 0.00
20260508011009 50 113 5.2 6.1 0.00 0.00 0.00
20260508010506 51 141 7.0 7.8 0.00 0.00 0.00
20260508010007 53 114 6.1 5.2 0.00 0.00 0.00
20260508005507 56 135 3.5 5.2 0.00 0.00 0.00
20260508005005 58 114 5.2 3.5 0.00 0.00 0.00
20260508004505 52 93 4.3 3.5 0.00 0.00 0.00
20260508004006 57 124 5.2 2.6 0.00 0.00 0.00
20260508003503 56 139 5.2 7.0 0.00 0.00 0.00
20260508003005 58 107 5.2 6.1 0.00 0.00 0.00
20260508002505 58 135 5.2 6.1 0.00 0.00 0.00
20260508002002 58 115 6.1 6.1 0.00 0.00 0.00
20260508001503 53 89 4.3 5.2 0.00 0.00 0.00
20260508001003 54 122 4.3 4.3 0.00 0.00 0.00
20260508000501 57 113 5.2 6.1 0.00 0.00 0.00
20260508000001 53 100 6.1 5.2 0.00 0.00 0.00
20260507235502 53 105 4.3 2.6 0.00 0.00 0.00
20260507235000 54 122 6.1 6.1 0.00 0.00 0.00
20260507234500 58 138 5.2 4.3 0.00 0.00 0.00
20260507234001 58 135 7.0 5.2 0.00 0.00 0.00
20260507233458 54 101 6.1 7.0 0.00 0.00 0.00
20260507232959 54 142 4.3 3.5 0.00 0.00 0.00
20260507232459 54 143 4.3 5.2 0.00 0.00 0.00
20260507231957 56 105 4.3 3.5 0.00 0.00 0.00
20260507231458 55 132 5.2 5.2 0.00 0.00 0.00
20260507230958 56 124 5.2 6.1 0.00 0.00 0.00
20260507230456 55 103 5.2 3.5 0.00 0.00 0.00
20260507225956 59 114 7.0 6.1 0.00 0.00 0.00
20260507225457 54 108 6.1 6.1 0.00 0.00 0.00
20260507224455 54 107 6.1 4.3 0.00 0.00 0.00
20260507223956 58 77 7.0 7.8 0.00 0.00 0.00
20260507223453 59 70 7.8 6.1 0.00 0.00 0.00
20260507222954 59 87 7.0 7.8 0.00 0.00 0.00
20260507222455 60 98 6.1 9.6 0.00 0.00 0.00
20260507221952 60 132 7.8 7.8 0.00 0.00 0.00
20260507221453 60 104 7.8 6.1 0.00 0.00 0.00
20260507220953 60 101 7.8 7.0 0.00 0.00 0.00
20260507220451 60 113 7.8 7.8 0.00 0.00 0.00
20260507215951 60 115 7.0 7.8 0.00 0.00 0.00
20260507215452 61 93 7.8 7.8 0.00 0.00 0.00
20260507214949 61 100 8.7 7.8 0.00 0.00 0.00
20260507214450 61 91 8.7 10.4 0.00 0.00 0.00
20260507213950 60 90 7.0 7.8 0.00 0.00 0.00
20260507213448 61 117 10.4 9.6 0.00 0.00 0.00
20260507212948 61 87 9.6 7.8 0.00 0.00 0.00
20260507212449 61 96 8.7 11.3 0.00 0.00 0.00
20260507211946 60 86 11.3 12.2 0.00 0.00 0.00
20260507211447 61 107 11.3 12.2 0.00 0.00 0.00
20260507210948 60 105 9.6 8.7 0.00 0.00 0.00
20260507210445 61 83 7.8 8.7 0.00 0.00 0.00
20260507205946 61 84 7.8 7.0 0.00 0.00 0.00
20260507205446 61 75 7.0 6.1 0.00 0.00 0.00
20260507204944 61 87 6.1 7.0 0.00 0.00 0.00
20260507204444 61 76 7.0 9.6 0.00 0.00 0.00
20260507203945 60 93 7.8 8.7 0.00 0.00 0.00
20260507203442 61 117 7.8 7.8 0.00 0.00 0.00
20260507202943 62 87 7.8 7.8 0.00 0.00 0.00
20260507202443 62 100 9.6 8.7 0.00 0.00 0.00
20260507201941 63 121 9.6 13.9 0.00 0.00 0.00
20260507201442 64 75 8.7 8.7 0.00 0.00 0.00
20260507200942 64 77 9.6 9.6 0.00 0.00 0.00
20260507200440 64 90 6.1 5.2 0.00 0.00 0.00
20260507195940 64 66 8.7 10.4 0.00 0.00 0.00
20260507195441 64 60 7.8 6.1 0.00 0.00 0.00
20260507194938 63 52 6.1 7.8 0.00 0.00 0.00
20260507194439 64 96 7.8 7.8 0.00 0.00 0.00
20260507193939 64 63 8.7 7.0 0.00 0.00 0.00
20260507193437 63 75 9.6 7.0 0.00 0.00 0.00
20260507192937 64 104 7.0 6.1 0.00 0.00 0.00
20260507192438 64 76 6.1 7.0 0.00 0.00 0.00
20260507191935 64 70 8.7 7.0 0.00 0.00 0.00
20260507191436 65 41 8.7 7.0 0.00 0.00 0.00
20260507190936 65 87 7.8 7.8 0.00 0.00 0.00
20260507190434 64 66 6.1 7.0 0.00 0.00 0.00
20260507185934 64 135 9.6 11.3 0.00 0.00 0.00
20260507185435 64 128 7.8 7.0 0.00 0.00 0.00
20260507184933 65 73 8.7 9.6 0.00 0.00 0.00
20260507184433 64 59 8.7 6.1 0.00 0.00 0.00
20260507183934 64 42 8.7 8.7 0.00 0.00 0.00
20260507183431 64 38 7.8 9.6 0.00 0.00 0.00
20260507182932 64 39 7.8 10.4 0.00 0.00 0.00
20260507182432 64 56 10.4 7.8 0.00 0.00 0.00
20260507181929 64 48 7.8 9.6 0.00 0.00 0.00
20260507181430 64 100 7.8 8.7 0.00 0.00 0.00
20260507180930 64 82 12.2 9.6 0.00 0.00 0.00
20260507180428 64 62 11.3 7.0 0.00 0.00 0.00
20260507175928 63 55 10.4 7.8 0.00 0.00 0.00
20260507175429 63 21 9.6 8.7 0.00 0.00 0.00
20260507174926 64 25 8.7 8.7 0.00 0.00 0.00
20260507174427 64 23 10.4 9.6 0.00 0.00 0.00
20260507173927 64 49 9.6 12.2 0.00 0.00 0.00
20260507173425 65 35 7.8 10.4 0.00 0.00 0.00
20260507172925 64 58 11.3 9.6 0.00 0.00 0.00
20260507172426 65 28 8.7 13.9 0.00 0.00 0.00
20260507171923 64 55 8.7 7.8 0.00 0.00 0.00
20260507171424 63 30 7.8 10.4 0.00 0.00 0.00
20260507170924 62 1 7.0 12.2 0.00 0.00 0.00
20260507170422 64 23 9.6 8.7 0.00 0.00 0.00
20260507165922 63 8 7.8 11.3 0.00 0.00 0.00
20260507165423 62 32 6.1 7.8 0.00 0.00 0.00
20260507164920 61 37 9.6 8.7 0.00 0.00 0.00
20260507164421 61 55 7.0 9.6 0.00 0.00 0.00
20260507164017 61 11 8.7 7.0 0.00 0.00 0.00
20260507163921 61 11 8.7 7.0 0.00 0.00 0.00
20260507163419 60 32 9.6 9.6 0.00 0.00 0.00
20260507162919 61 45 7.0 8.7 0.00 0.00 0.00
20260507162420 61 359 7.0 7.0 0.00 0.00 0.00
20260507161917 60 58 8.7 7.0 0.00 0.00 0.00
20260507161418 60 41 8.7 8.7 0.00 0.00 0.00
20260507160919 59 18 7.0 9.6 0.00 0.00 0.00
20260507160416 58 8 10.4 7.8 0.00 0.00 0.00
20260507155917 58 7 8.7 8.7 0.00 0.00 0.00
20260507155417 58 13 8.7 9.6 0.00 0.00 0.00
20260507154915 57 3 8.7 9.6 0.00 0.00 0.00
20260507154415 58 32 11.3 8.7 0.00 0.00 0.00
20260507153916 58 31 8.7 11.3 0.00 0.00 0.00
20260507153414 57 15 7.8 9.6 0.00 0.00 0.00
20260507152914 57 20 8.7 10.4 0.00 0.00 0.00
20260507152415 57 354 8.7 12.2 0.00 0.00 0.00
20260507151912 57 14 11.3 12.2 0.00 0.00 0.00
20260507151413 56 4 9.6 8.7 0.00 0.00 0.00
20260507150913 55 8 10.4 12.2 0.00 0.00 0.00
20260507150411 55 13 9.6 8.7 0.00 0.00 0.00
20260507145911 55 3 9.6 7.8 0.00 0.00 0.00
20260507145412 55 7 8.7 8.7 0.00 0.00 0.00
20260507144910 55 6 9.6 7.8 0.00 0.00 0.00
20260507144410 56 346 8.7 11.3 0.00 0.00 0.00
20260507143911 55 28 9.6 9.6 0.00 0.00 0.00
20260507143409 55 17 7.8 12.2 0.00 0.00 0.00
20260507142909 55 51 7.8 5.2 0.00 0.00 0.00
20260507142410 55 20 8.7 7.0 0.00 0.00 0.00
20260507141908 55 6 9.6 9.6 0.00 0.00 0.00
20260507141408 54 41 7.8 8.7 0.00 0.00 0.00
20260507140909 54 23 7.8 7.8 0.00 0.00 0.00
20260507140407 54 14 9.6 10.4 0.00 0.00 0.00
20260507135907 54 13 9.6 9.6 0.00 0.00 0.00
20260507135408 54 25 8.7 7.8 0.00 0.00 0.00
20260507134906 54 354 9.6 8.7 0.00 0.00 0.00
20260507134406 54 21 8.7 9.6 0.00 0.00 0.00
20260507133907 54 28 8.7 10.4 0.00 0.00 0.00
20260507133405 54 34 7.8 7.8 0.00 0.00 0.00
20260507132905 54 8 10.4 12.2 0.00 0.00 0.00
20260507132406 54 31 10.4 10.4 0.00 0.00 0.00
20260507131905 55 3 9.6 7.0 0.00 0.00 0.00
20260507131404 54 1 8.7 8.7 0.00 0.00 0.00
20260507130905 53 23 8.7 8.7 0.00 0.00 0.00
20260507130402 54 17 9.6 11.3 0.00 0.00 0.00
20260507125903 54 349 8.7 9.6 0.00 0.00 0.00
20260507125403 55 18 7.8 7.0 0.00 0.00 0.00
20260507124901 54 13 7.8 7.0 0.00 0.00 0.00
20260507124402 54 23 9.6 13.0 0.00 0.00 0.00
20260507123902 53 17 7.8 8.7 0.00 0.00 0.00
20260507123400 53 1 9.6 8.7 0.00 0.00 0.00
20260507122900 53 25 7.0 8.7 0.00 0.00 0.00
20260507122401 53 24 7.0 7.0 0.00 0.00 0.00
20260507121859 53 349 7.0 12.2 0.00 0.00 0.00
20260507121400 53 342 7.8 7.8 0.00 0.00 0.00
20260507120900 53 7 7.8 8.7 0.00 0.00 0.00
20260507120357 53 32 7.0 5.2 0.00 0.00 0.00
20260507115858 53 359 10.4 7.0 0.00 0.00 0.00
20260507115358 54 7 11.3 7.8 0.00 0.00 0.00
20260507114856 53 4 10.4 8.7 0.00 0.00 0.00
20260507114356 54 25 8.7 7.8 0.00 0.00 0.00
20260507113857 54 10 9.6 9.6 0.00 0.00 0.00
20260507113354 54 353 8.7 8.7 0.00 0.00 0.00
20260507112855 54 13 7.8 6.1 0.00 0.00 0.00
20260507112355 54 357 7.8 7.8 0.00 0.00 0.00
20260507111853 54 4 7.8 9.6 0.00 0.00 0.00
20260507111424 55 13 9.6 7.8 0.00 0.00 0.00
20260507111353 55 13 9.6 7.8 0.00 0.00 0.00
20260507110926 55 8 10.4 9.6 0.00 0.00 0.00
20260507110854 55 8 10.4 9.6 0.00 0.00 0.00
20260507105852 55 4 7.8 7.0 0.00 0.00 0.00
20260507105352 55 359 9.6 8.7 0.00 0.00 0.00
20260507104850 56 353 8.7 7.8 0.00 0.00 0.00
20260507104350 55 35 8.7 7.8 0.00 0.00 0.00
20260507103850 55 18 12.2 11.3 0.00 0.00 0.00